TimeEDT,TemperatureF,Dew PointF,Humidity,Sea Level PressureIn,VisibilityMPH,Wind Direction,Wind SpeedMPH,Gust SpeedMPH,PrecipitationIn,Events,Conditions,WindDirDegrees,DateUTC
1:15 AM,59.0,55.4,88,30.26,10.0,Calm,Calm,-,N/A,,Mostly Cloudy,0,2012-10-14 05:15:00
1:53 AM,57.9,55.9,93,30.26,10.0,Calm,Calm,-,N/A,,Overcast,0,2012-10-14 05:53:00
2:53 AM,62.1,57.0,84,30.23,10.0,ESE,5.8,-,N/A,,Mostly Cloudy,110,2012-10-14 06:53:00
3:07 AM,60.8,57.2,88,30.24,10.0,ESE,4.6,-,N/A,,Scattered Clouds,110,2012-10-14 07:07:00
3:53 AM,60.1,57.0,90,30.22,10.0,SE,3.5,-,N/A,,Clear,130,2012-10-14 07:53:00
4:53 AM,59.0,57.0,93,30.22,8.0,ESE,3.5,-,N/A,,Clear,110,2012-10-14 08:53:00
5:53 AM,57.0,55.9,96,30.21,6.0,Calm,Calm,-,N/A,,Clear,0,2012-10-14 09:53:00
6:18 AM,57.2,55.4,94,30.22,7.0,Calm,Calm,-,N/A,,Mostly Cloudy,0,2012-10-14 10:18:00
6:53 AM,60.1,57.0,90,30.22,8.0,Calm,Calm,-,N/A,,Overcast,0,2012-10-14 10:53:00
7:19 AM,60.8,57.2,88,30.22,8.0,ESE,4.6,-,N/A,,Overcast,110,2012-10-14 11:19:00
7:53 AM,60.1,57.0,90,30.22,8.0,East,3.5,-,N/A,,Overcast,100,2012-10-14 11:53:00
8:40 AM,60.8,55.4,82,30.22,9.0,ESE,5.8,-,N/A,,Scattered Clouds,110,2012-10-14 12:40:00
8:53 AM,61.0,57.0,87,30.21,10.0,ESE,5.8,-,N/A,,Partly Cloudy,110,2012-10-14 12:53:00
9:06 AM,62.6,57.2,82,30.22,10.0,East,5.8,-,N/A,,Mostly Cloudy,100,2012-10-14 13:06:00
9:53 AM,63.0,57.0,81,30.24,10.0,ESE,8.1,-,N/A,,Overcast,120,2012-10-14 13:53:00
10:53 AM,66.9,60.1,79,30.23,10.0,SE,5.8,-,N/A,,Mostly Cloudy,140,2012-10-14 14:53:00
11:10 AM,69.8,60.8,73,30.24,10.0,SE,6.9,-,N/A,,Scattered Clouds,140,2012-10-14 15:10:00
11:53 AM,73.9,62.1,66,30.23,10.0,SE,5.8,-,N/A,,Partly Cloudy,140,2012-10-14 15:53:00
12:53 PM,75.0,62.1,64,30.21,10.0,Variable,6.9,-,N/A,,Mostly Cloudy,0,2012-10-14 16:53:00
1:16 PM,75.2,62.6,65,30.20,10.0,Variable,4.6,-,N/A,,Mostly Cloudy,0,2012-10-14 17:16:00
1:33 PM,75.2,62.6,65,30.19,10.0,WSW,6.9,-,N/A,,Mostly Cloudy,250,2012-10-14 17:33:00
1:42 PM,75.2,62.6,65,30.19,10.0,Calm,Calm,-,N/A,,Overcast,0,2012-10-14 17:42:00
1:53 PM,75.9,62.1,62,30.17,10.0,Variable,5.8,-,N/A,,Mostly Cloudy,0,2012-10-14 17:53:00
2:53 PM,78.1,63.0,60,30.14,10.0,WSW,5.8,-,N/A,,Mostly Cloudy,240,2012-10-14 18:53:00
4:53 PM,77.0,61.0,58,30.09,10.0,Variable,4.6,-,N/A,,Clear,0,2012-10-14 20:53:00
5:53 PM,77.0,62.1,60,30.08,10.0,Calm,Calm,-,N/A,,Partly Cloudy,0,2012-10-14 21:53:00
6:53 PM,73.0,63.0,71,30.04,10.0,SE,4.6,-,N/A,,Clear,140,2012-10-14 22:53:00
7:53 PM,66.9,63.0,87,30.05,10.0,Calm,Calm,-,N/A,,Clear,0,2012-10-14 23:53:00
8:53 PM,66.0,63.0,90,30.05,10.0,Calm,Calm,-,N/A,,Clear,0,2012-10-15 00:53:00
9:53 PM,64.0,62.1,93,30.05,8.0,Calm,Calm,-,N/A,,Clear,0,2012-10-15 01:53:00
10:53 PM,64.0,62.1,93,30.06,9.0,Calm,Calm,-,N/A,,Mostly Cloudy,0,2012-10-15 02:53:00
11:53 PM,64.0,62.1,93,30.03,8.0,Calm,Calm,-,N/A,,Mostly Cloudy,0,2012-10-15 03:53:00